Flag for Brazil Weather past 2 weeks in Rio Branco, Acre, Brazil

Now
73 °F

Clear.


Feels Like: 70 °F
Forecast: 70 / 86 °F
Wind: No wind

Location: Rio Branco Airport

Current Time: Jan 29, 2015 at 12:29:38 AM

Latest Report: Jan 29, 2015 at 12:00 AM


Visibility: 10 mi

Pressure: 29.86 "Hg

Humidity: 94%

Dew point: 72 °F

Location of Rio BrancoLocation

Historic Weather in Rio Branco — Graph

°F

Rio Branco temperature yesterday

Maximum temperature yesterday: 81 °F (at 9:00 AM)
Minimum temperature yesterday: 73 °F (at 12:00 AM)
Average temperature yesterday: 75 °F

Past Weeks' High & Low Weather Summary

 TemperatureHumidityPressure
High90 °F (Jan 15, 4:00 PM)100% (Jan 15, 1:00 AM)30.01 "Hg (Jan 15, 1:00 AM)
Low36 °F (Jan 21, 8:00 PM)21% (Jan 18, 2:00 PM)29.74 "Hg (Jan 25, 5:00 PM)
Average75 °F87%29.89 "Hg
* Reported Jan 13 11:00 PM — Jan 28 11:00 PM, Rio Branco, Weather by CustomWeather, © 2014

Note: Actual official high and low records may vary slightly from our data, if they occured in-between our weather recording intervals... More about our weather records

Advertising

Rio Branco weather history for previous 24 hours

 ConditionsComfort  
Time TempWeatherWind HumidityBarometerVisibility
11:00 PM
Jan 28
73 °FClear.2 mph94%29.89 "Hg10 mi
10:00 PM73 °FPartly cloudy.5 mph94%29.89 "HgN/A
9:00 PM73 °FPartly cloudy.No wind89%29.89 "HgN/A
8:00 PM73 °FPassing clouds.5 mph89%29.89 "HgN/A
7:00 PM73 °FScattered clouds.5 mph89%29.83 "HgN/A
6:00 PM75 °FScattered clouds.6 mph83%29.80 "HgN/A
5:00 PM75 °FScattered clouds.5 mph89%29.80 "HgN/A
4:00 PM77 °FScattered showers. Scattered clouds.13 mph83%N/AN/A
3:00 PM79 °FScattered clouds.3 mph84%29.80 "HgN/A
2:00 PM75 °FScattered showers. Broken clouds.1 mph89%N/AN/A
1:05 PM73 °FHeavy rain. Broken clouds.12 mph89%29.86 "Hg1 mi
1:00 PM77 °FRain. Broken clouds.12 mphN/AN/A3 mi
12:00 PM81 °FScattered showers. Broken clouds.5 mph84%N/AN/A
11:00 AM81 °FPartly sunny.5 mph74%29.95 "HgN/A
10:00 AM81 °FPartly sunny.2 mph74%29.95 "HgN/A
9:00 AM81 °FBroken clouds.3 mph74%29.95 "HgN/A
8:00 AM75 °FPartly sunny.5 mph89%29.95 "HgN/A
7:00 AM75 °FBroken clouds.2 mph89%29.92 "HgN/A
6:00 AM73 °FPartly cloudy.1 mph100%29.89 "HgN/A
5:00 AM73 °FPassing clouds.2 mph100%29.86 "HgN/A
4:00 AM73 °FPassing clouds.No wind100%29.86 "HgN/A
3:00 AM73 °FPassing clouds.1 mph100%29.86 "HgN/A
2:00 AM73 °FPassing clouds.1 mph94%29.86 "HgN/A
1:00 AM73 °FClear.1 mph100%29.89 "Hg10 mi
12:00 AM73 °FClear.2 mph100%29.89 "Hg10 mi
Weather by CustomWeather, © 2014

See weather overviewHow to use our weather pages